Pagrindinis puslapis
METAR-TAF:

METAR-TAF

Oro uostai :

Senendedžas, Iranas

platuma: 35-20N, ilguma: 047-00E, Aukštis: 1373 m

Dabartinis oras

Ataskaita buvo paskelbta 9 valandos ir 43 minutes, ne 09:00 UTC
Vėjas 20 kt iš Pietų su gūsio iki 32 kt
Temperatūra 21°C
Drėgmė 18%
Slėgis 1018 hPa
Matomumas 10 km arba daugiau
Išsisklaidę debesys ne aukštis 4000 ft

METAR: OICS 120900Z 18020G32KT 9999 SCT040 21/M04 Q1018 A3006

Laikas: 23:13 (18:43 UTC)


TAF: trūkstamas

Orai ataskaitas ir orų prognozės (METAR, TAF).

turimą stotys yra geltonos ir raudonos taškus žemėlapyje.

Perkelti pele per norėdami pamatyti stoties vardą.

Tada spustelėkite, norėdami matyti oro stebėjimo ir prognozės.

Norėdami pakeisti žemėlapį: spustelėkite ant žalios mygtukų su juodo kryžiaus žemyn,; žalią mygtuką su brūkšneliu, jei norite nutolinti; arba žalių rodyklių gretimoms žemėlapius.


METAR-TAF: